Temperature
21 21 21 21 18 17 18 19 20 20 20 20 20 19 18 17 17 16 17 17 17 17 17 17 17 17 17 17 17 17 17 17 17 17 17 18 18 18 18 18 18 18 18 18 17 18 18 17 18
21 21 21 20 17 17 18 19 20 20 21 20 20 19 18 17 17 17 17 17 17 17 17 17 17 17 17 17 17 17 17 17 17 17 17 17 18 18 18 18 18 17 18 18 17 17 17 17 17
22 21 21 17 18 18 19 19 20 21 21 21 19 19 18 18 17 17 17 17 17 17 17 17 17 17 17 17 17 17 17 17 17 17 17 17 17 17 17 17 17 17 17 17 17 17 17 17 17
22 21 21 18 19 19 20 20 21 21 21 20 19 18 18 18 18 17 17 17 17 17 17 17 17 17 17 17 17 17 17 17 17 17 17 17 17 17 17 17 17 17 17 17 17 17 17 17 17
22 21 18 18 19 20 20 21 21 20 20 20 19 17 17 18 18 17 17 17 17 17 17 17 17 17 17 17 17 17 17 17 17 17 17 17 17 17 17 17 17 17 17 17 17 17 17 17 17
22 19 18 18 20 20 21 21 21 20 20 19 18 17 17 17 18 17 17 17 17 17 17 17 17 17 17 17 17 17 17 17 17 17 17 17 17 17 17 17 17 17 17 17 17 17 16 16 17
21 18 18 19 19 20 21 22 21 20 20 19 19 17 17 17 18 17 17 17 17 17 17 17 17 17 17 17 17 17 16 16 17 17 17 17 17 17 17 17 17 17 17 17 16 16 16 16 16
23 18 19 19 19 20 21 22 21 21 20 20 20 18 17 18 18 17 17 17 17 17 17 17 17 17 17 17 17 16 16 16 16 16 16 16 16 16 16 16 17 16 16 16 16 16 16 16 16
23 18 18 19 20 20 21 21 21 21 20 20 19 19 19 18 18 18 17 17 17 17 17 17 17 17 17 16 16 16 16 16 16 16 16 16 16 16 16 16 16 16 16 16 16 16 16 16 16
22 18 20 21 20 20 21 21 21 20 19 19 19 19 19 18 18 18 18 18 17 17 17 17 17 17 17 17 16 16 16 16 16 16 16 16 16 16 16 16 16 16 16 16 16 16 16 16 16
22 20 21 22 22 22 22 21 21 20 18 19 19 19 18 18 18 18 18 18 17 17 17 17 17 17 17 17 17 16 16 16 16 16 16 16 16 16 16 16 16 16 16 16 16 16 16 16 16
22 22 22 22 23 22 22 21 21 20 20 20 20 19 19 19 18 18 18 18 18 17 17 17 17 17 17 17 16 16 16 16 16 16 16 16 16 16 16 16 16 16 16 16 16 16 16 16 16
22 22 23 23 23 22 22 21 21 20 21 20 20 19 19 19 19 18 18 18 18 17 17 17 17 17 17 17 16 16 16 16 16 16 16 16 16 16 16 16 16 16 16 16 16 15 15 16 16
23 23 23 23 23 22 21 21 20 20 20 20 20 19 19 19 19 19 18 18 18 18 17 17 17 17 17 17 16 16 16 16 16 16 16 16 16 16 16 16 16 16 15 15 15 15 15 15 15
23 22 22 22 22 22 21 20 20 21 20 20 19 19 19 19 19 19 19 18 18 18 18 17 17 17 17 17 16 16 16 16 16 16 16 16 16 16 16 16 16 15 15 15 15 15 15 15 15
22 21 20 21 22 22 21 19 20 21 20 20 19 19 19 19 19 19 19 19 18 18 18 17 17 17 17 16 16 16 16 16 16 16 16 16 16 16 15 15 15 15 15 15 15 15 15 15 15
20 20 20 21 22 22 20 19 20 21 20 20 19 20 20 19 19 19 19 19 18 18 18 17 17 17 17 16 16 16 16 16 16 16 16 16 16 15 15 15 15 15 15 15 15 15 15 15 15
20 20 21 21 22 21 20 19 19 20 20 20 19 19 19 19 19 19 19 19 18 18 18 17 17 17 17 16 16 16 16 16 16 15 15 15 15 15 15 15 15 15 15 15 15 15 15 15 15
22 21 21 21 22 21 20 19 19 20 20 19 19 19 19 19 20 19 19 19 18 18 18 17 17 17 16 16 16 16 16 16 15 15 15 15 15 15 15 15 15 15 15 15 15 15 15 15 15
22 21 21 21 22 21 20 19 20 20 20 20 19 19 19 19 19 19 19 18 18 18 17 17 17 16 16 16 16 16 15 15 15 15 15 15 15 15 15 15 15 15 15 15 15 15 15 14 14
22 21 21 22 22 21 20 19 19 19 20 20 20 20 20 20 19 19 19 18 18 18 18 17 17 16 16 16 16 15 15 15 15 15 15 15 15 15 15 15 15 15 15 15 15 14 15 14 14
21 22 23 22 20 19 20 18 19 19 19 19 19 19 20 19 19 19 19 18 18 18 18 17 17 16 16 16 16 16 15 15 15 15 15 15 15 14 14 14 14 14 14 14 14 14 14 14 14
22 23 22 22 20 19 19 18 18 18 18 18 19 20 20 19 19 19 19 19 18 18 17 17 17 16 16 16 16 16 15 15 15 15 15 15 14 14 14 14 14 14 14 14 14 14 14 14 14
23 21 20 18 18 18 19 18 18 17 18 18 19 19 20 19 19 19 19 18 18 18 17 17 17 16 16 16 16 16 15 15 15 15 15 15 15 14 14 14 14 14 14 14 14 14 14 14 14
21 18 18 18 17 18 19 19 18 18 19 19 19 19 20 19 19 19 19 18 18 18 17 17 17 16 16 16 16 16 15 15 15 15 15 15 15 14 14 14 14 14 14 14 14 14 14 14 14
21 19 18 18 18 18 19 19 18 20 20 21 21 20 20 19 19 19 19 19 18 18 17 17 17 16 16 16 16 16 15 15 15 15 15 15 15 14 14 14 14 14 14 14 14 14 14 14 14
21 19 18 17 18 18 18 19 20 20 20 19 20 19 19 19 19 19 19 19 18 18 17 17 17 16 16 16 16 15 15 15 15 15 15 15 14 14 14 14 14 14 14 14 14 14 14 14 14
21 20 17 18 18 18 18 18 18 19 19 19 18 18 19 19 19 19 19 18 18 18 17 17 17 16 16 16 16 16 15 15 15 15 15 15 14 14 14 14 14 14 14 14 14 14 14 14 14
21 20 18 16 16 17 17 18 19 18 18 18 18 19 19 19 19 19 19 18 18 18 17 17 17 16 16 16 16 16 15 15 15 15 15 14 14 14 14 14 14 14 14 14 14 14 14 14 13
21 20 18 18 17 16 16 17 19 18 18 19 18 19 19 19 19 19 18 18 18 17 17 17 17 16 16 16 16 15 15 15 15 15 14 14 14 14 14 14 14 14 14 13 13 13 13 13 13
Wind_Speed
1 0 3 3 6 6 4 2 2 4 4 5 8 9 8 6 5 4 2 4 6 5 5 5 6 7 7 7 7 8 9 9 10 10 10 10 10 10 10 10 10 10 11 11 10 11 11 11 11
1 1 4 5 5 5 3 1 4 4 4 6 8 8 7 6 4 4 2 4 6 6 5 5 6 6 7 7 7 8 8 8 9 9 9 10 10 9 10 10 10 10 10 10 10 10 10 11 11
0 1 4 5 4 4 4 2 4 4 5 5 5 6 5 3 2 3 4 6 6 5 6 6 6 6 7 7 7 8 8 8 8 8 9 9 10 10 10 10 10 10 10 10 10 10 10 10 11
3 4 5 6 6 3 5 4 5 6 5 6 6 6 4 2 2 3 5 6 6 4 5 6 6 6 7 7 8 8 8 8 8 8 8 8 9 9 9 9 10 10 10 10 10 10 10 10 10
4 5 6 5 4 3 5 5 6 7 5 5 7 6 3 1 3 5 6 7 7 4 4 6 6 7 7 7 7 7 7 7 8 7 7 8 8 8 8 8 9 9 10 10 10 10 10 10 10
4 5 5 4 4 4 4 4 7 9 7 6 7 5 2 1 3 4 5 6 6 5 5 5 7 7 7 7 7 6 6 7 7 7 7 7 7 7 7 8 8 8 9 9 10 10 10 10 11
5 5 4 5 5 4 3 4 6 7 6 4 6 5 2 1 2 3 4 6 5 5 5 4 5 5 6 5 6 6 6 6 6 6 6 6 5 6 7 7 7 8 8 9 9 9 9 10 11
5 5 4 3 5 3 2 4 5 6 5 4 5 6 4 4 4 3 4 4 4 4 3 3 3 4 3 3 4 5 4 4 4 5 5 5 5 5 6 6 6 7 8 8 8 8 9 10 10
5 6 3 3 5 3 4 6 4 5 6 4 4 4 5 7 6 5 4 3 3 3 2 3 3 3 3 3 2 3 2 2 2 3 4 4 4 3 4 5 6 7 7 7 8 8 9 9 10
5 5 2 4 6 6 5 5 4 5 6 5 5 4 6 7 6 5 4 4 3 3 3 2 3 3 3 2 2 1 2 2 3 3 3 4 3 3 4 5 6 6 7 7 8 9 9 8 7
5 5 4 5 6 7 5 4 4 7 4 5 7 7 7 6 5 5 4 4 4 3 3 3 3 3 3 2 2 2 2 3 3 3 4 5 5 4 5 5 5 6 6 6 7 8 8 8 7
6 5 6 6 6 6 5 4 4 4 5 7 9 10 8 7 6 5 5 4 4 4 4 3 3 3 3 3 2 2 2 3 3 3 4 5 4 4 4 4 4 5 5 6 6 7 8 8 8
5 5 5 5 6 6 6 5 5 3 6 8 9 8 8 7 6 5 5 5 4 4 3 3 4 4 3 3 3 3 3 3 3 4 6 7 5 3 3 3 5 5 6 6 6 6 7 7 7
5 6 5 5 5 5 6 4 5 4 8 9 9 8 8 7 7 5 4 4 4 4 4 4 5 3 4 3 3 3 3 4 5 5 6 8 7 5 4 4 4 5 6 7 7 7 6 6 6
5 5 2 2 4 4 6 2 4 7 8 10 9 8 8 7 7 7 7 7 6 6 5 4 5 4 4 3 3 3 4 5 5 5 6 7 7 7 5 4 3 4 6 7 7 7 7 5 5
3 3 1 4 4 4 6 4 6 7 9 9 8 7 7 6 7 7 7 7 7 7 5 4 5 5 4 4 4 4 4 5 5 5 6 7 7 8 6 4 3 6 7 6 4 4 5 5 4
2 1 3 4 4 4 5 5 6 7 9 9 8 7 7 7 6 6 7 8 8 7 7 5 5 5 4 4 4 4 4 4 4 5 6 7 7 8 7 4 4 6 6 4 4 4 4 4 4
4 3 3 5 4 5 5 6 6 8 9 9 8 7 7 7 8 7 7 8 7 7 6 6 5 4 4 4 4 3 4 3 4 4 5 6 6 7 7 5 5 6 4 4 4 4 3 3 3
4 3 3 5 5 5 6 7 7 8 8 8 8 8 8 7 6 6 7 8 7 6 6 6 5 4 4 3 3 2 1 1 2 3 5 5 5 6 6 4 4 4 4 3 4 3 4 3 3
3 2 3 3 2 4 4 6 6 8 10 10 11 10 9 7 5 5 6 7 7 6 6 6 6 5 4 3 3 2 2 1 1 2 3 4 5 5 5 4 3 3 3 4 3 3 2 1 2
2 3 4 3 1 1 1 4 4 4 5 5 7 9 9 10 10 8 7 6 7 7 7 7 6 5 4 4 3 3 3 3 2 2 1 1 2 4 5 5 4 3 3 3 3 3 3 2 0
3 4 3 1 1 3 2 3 6 4 3 5 6 7 8 8 9 9 8 7 8 7 7 7 6 5 4 4 5 5 3 2 2 2 1 1 1 3 5 5 4 3 3 3 3 2 2 3 1
5 3 1 1 1 2 1 2 6 1 3 6 7 8 8 8 10 10 10 9 8 7 7 6 6 5 4 4 5 5 3 2 1 1 1 0 0 1 3 4 3 3 2 2 2 2 2 2 2
1 4 6 5 4 2 4 4 5 3 6 6 6 7 8 9 9 8 8 8 6 6 6 6 6 4 4 5 5 6 5 4 3 2 2 1 1 0 1 3 3 3 2 2 2 2 3 2 1
5 6 4 5 3 5 3 2 6 6 6 8 9 8 8 9 9 9 8 8 7 7 6 6 6 4 4 4 5 5 5 5 5 4 4 2 1 1 1 2 2 2 2 3 2 2 2 2 2
2 7 5 3 4 5 3 2 5 4 3 5 7 8 8 8 9 10 10 10 8 8 7 7 6 5 4 4 4 4 4 4 4 4 4 4 3 3 3 3 3 3 3 3 2 1 1 2 2
3 3 6 5 2 2 3 2 4 2 2 3 5 6 8 9 9 10 9 9 8 8 8 8 8 6 5 5 4 4 4 4 4 4 4 3 3 3 3 4 3 3 3 3 3 1 1 2 2
5 5 5 3 1 2 3 3 4 4 3 3 5 7 7 8 8 8 8 8 8 7 6 6 7 7 5 5 4 4 4 4 4 3 4 4 4 3 4 3 3 3 2 3 3 2 2 2 1
1 1 3 3 4 4 3 6 5 8 6 6 6 7 8 9 9 9 8 7 7 6 6 6 6 5 5 5 4 4 4 4 4 4 5 5 4 4 4 4 4 3 3 2 3 2 2 2 1
5 5 5 3 4 4 3 6 4 6 5 5 4 4 5 7 7 7 7 6 6 6 6 6 6 5 4 4 4 3 3 3 3 3 4 4 4 4 4 4 4 4 3 3 3 3 3 3 2
Wind_Direction
292 58 89 61 54 57 59 26 80 54 52 58 69 79 82 66 87 126 229 139 139 139 128 110 98 89 87 84 82 86 86 80 75 73 73 73 75 83 86 87 88 89 87 85 83 81 82 80 81
14 99 66 59 79 81 55 68 78 78 122 116 81 78 75 70 86 115 126 145 138 139 131 116 105 97 96 93 89 90 91 87 82 78 76 76 77 82 87 88 87 90 90 88 85 84 83 83 82
315 94 78 65 80 118 136 164 119 82 79 90 76 56 71 93 95 137 168 153 132 129 128 120 114 109 105 101 96 93 92 90 88 84 81 80 82 83 85 87 89 91 90 87 86 84 81 85 84
75 51 58 72 84 114 139 141 120 96 66 63 91 67 56 65 127 151 153 138 125 125 135 131 122 116 115 108 100 94 94 92 91 89 85 83 84 85 86 87 89 91 91 90 87 84 81 82 81
67 71 64 72 84 91 108 117 111 98 87 79 90 94 72 4 118 130 139 138 133 137 144 135 122 118 120 115 109 106 102 98 95 90 88 86 84 86 89 94 94 94 94 92 89 85 82 79 76
58 69 84 93 93 85 86 101 93 92 103 101 99 103 108 203 130 140 142 139 144 151 151 135 126 123 123 121 117 113 108 104 100 94 89 86 87 89 89 98 101 100 99 99 94 87 84 78 75
102 88 109 125 103 92 112 104 99 109 107 113 121 104 130 222 170 141 130 132 141 148 145 147 135 128 128 130 127 122 114 105 101 98 93 90 89 92 91 98 103 107 107 105 99 91 87 81 80
123 98 85 102 110 106 116 101 108 106 107 120 107 127 171 205 174 125 108 112 129 135 138 158 151 142 144 144 140 134 127 119 110 107 108 100 95 97 92 95 105 110 111 110 102 94 88 82 78
90 80 100 140 137 136 120 101 95 83 94 80 82 135 165 160 143 122 102 85 104 122 135 148 158 168 176 177 154 144 134 131 123 113 107 89 87 92 91 96 106 109 111 108 100 92 88 81 75
81 102 141 157 148 141 121 116 125 94 85 82 84 100 127 136 134 136 141 140 129 127 138 148 148 153 155 143 118 92 87 93 108 117 113 91 97 98 95 89 97 100 100 95 91 89 84 77 71
110 134 130 114 126 122 109 98 103 118 118 158 153 149 138 131 134 144 153 148 146 144 134 128 136 119 103 94 96 81 80 79 80 95 113 101 95 91 88 82 69 77 80 77 76 74 76 79 78
107 124 126 132 130 121 124 117 102 133 176 173 158 152 146 150 160 163 156 148 139 132 129 125 118 98 98 94 79 75 78 72 76 92 105 108 99 92 92 84 75 76 80 80 77 78 77 79 80
105 122 125 135 132 133 123 128 130 143 148 143 142 142 152 161 170 176 160 148 133 130 129 130 112 109 98 86 83 77 68 72 72 84 99 109 105 101 98 89 90 92 91 88 84 82 82 79 78
150 138 141 147 141 140 131 136 125 176 151 144 148 157 168 169 169 165 156 154 146 145 140 129 118 120 109 99 85 75 71 64 72 83 96 104 107 105 98 88 88 90 91 91 90 87 86 79 78
125 117 110 181 168 165 127 113 185 187 158 157 164 173 176 175 166 174 175 167 161 152 144 134 127 114 112 107 89 84 76 75 71 76 90 101 104 101 101 96 91 89 95 93 87 79 77 76 71
93 95 202 242 187 172 135 207 223 183 162 170 177 181 182 186 179 183 178 166 159 150 146 135 120 111 108 106 97 88 81 77 73 73 84 90 98 105 102 95 90 97 95 93 88 78 79 72 66
47 183 222 262 209 170 159 213 223 186 174 182 187 186 184 190 190 185 177 164 157 155 148 127 114 115 108 101 97 92 84 76 76 76 79 89 94 99 102 98 103 102 96 88 97 84 92 89 74
217 213 226 232 222 175 190 222 221 200 187 188 188 186 186 189 199 183 168 160 152 149 139 131 125 121 111 95 84 70 64 56 64 74 80 93 102 101 101 103 97 98 90 78 84 91 82 93 90
200 212 240 244 213 177 206 228 222 205 196 194 193 190 193 199 200 167 160 154 145 143 134 137 132 137 123 111 108 101 91 55 40 65 82 91 102 105 105 105 101 97 95 98 100 98 83 75 93
223 235 267 285 200 171 219 251 237 206 202 196 193 193 192 189 172 162 158 153 151 151 149 147 149 152 148 147 152 153 150 128 94 50 68 82 96 110 117 117 112 107 104 96 95 102 101 92 92
251 212 223 237 333 33 113 315 284 248 206 194 189 190 189 182 179 173 162 160 154 154 160 159 160 157 155 145 119 96 73 53 43 31 18 25 91 112 121 127 124 120 121 134 137 133 132 152 284
257 242 213 200 89 262 175 260 275 247 194 196 194 186 186 180 172 171 164 161 163 168 162 156 162 159 158 146 138 138 138 151 205 211 230 313 93 116 130 138 139 137 136 142 160 142 145 143 174
224 251 270 269 179 313 295 187 287 224 211 221 205 188 184 175 170 173 172 169 167 165 161 162 160 159 159 154 153 149 151 178 186 172 170 237 1 104 126 142 142 143 146 146 145 132 132 144 157
133 32 22 41 67 315 246 179 269 236 217 211 205 191 180 173 169 171 170 162 159 157 156 157 158 165 165 160 156 157 162 167 160 172 183 214 263 317 120 145 139 145 151 159 161 149 147 148 139
71 74 23 359 4 261 264 168 245 245 214 193 191 188 177 172 166 166 163 166 166 164 164 159 158 168 176 170 171 172 173 175 181 190 192 192 198 227 223 161 155 157 161 160 152 137 160 160 150
173 138 156 210 240 281 328 216 257 257 211 180 176 171 166 172 174 175 176 177 177 176 172 167 172 180 182 179 184 188 182 180 191 193 186 193 202 210 198 170 164 166 163 151 139 126 161 149 160
150 176 176 155 267 283 297 297 315 0 63 134 153 156 173 181 181 181 179 179 180 181 182 180 179 184 188 188 184 190 195 189 194 197 191 200 207 203 182 171 167 168 165 160 148 149 175 157 162
161 162 96 116 187 277 293 251 235 226 206 183 170 180 189 188 185 182 179 183 185 185 184 182 182 188 192 194 197 196 202 197 195 187 195 199 198 191 175 174 170 172 170 162 151 154 166 147 168
188 156 130 138 165 171 246 267 227 197 196 189 193 192 194 190 188 185 185 186 181 176 176 180 185 190 195 198 198 194 203 199 195 199 200 198 199 193 185 179 174 176 180 169 155 169 166 165 192
189 188 152 164 241 191 197 267 278 184 179 170 181 200 198 189 185 185 184 179 176 179 179 182 186 192 201 198 186 188 199 193 194 205 206 196 195 196 191 182 177 185 190 181 171 185 186 181 190
Height
1525 1524 1524 1525 1529 1541 1545 1540 1534 1533 1533 1534 1533 1533 1536 1540 1543 1549 1546 1543 1543 1542 1541 1540 1539 1538 1537 1535 1535 1534 1533 1533 1532 1531 1531 1530 1529 1529 1528 1528 1528 1528 1528 1528 1528 1528 1528 1529 1529
1525 1525 1526 1526 1537 1551 1549 1539 1536 1534 1534 1534 1535 1536 1538 1541 1542 1544 1544 1544 1543 1543 1541 1540 1539 1538 1537 1536 1535 1534 1534 1533 1533 1532 1532 1531 1530 1530 1529 1529 1529 1528 1529 1529 1529 1529 1529 1530 1530
1525 1525 1527 1530 1541 1549 1546 1538 1535 1534 1534 1534 1537 1538 1541 1543 1544 1544 1544 1544 1544 1543 1542 1541 1540 1538 1537 1537 1536 1535 1534 1534 1533 1533 1533 1532 1531 1530 1530 1530 1529 1529 1529 1529 1530 1530 1531 1531 1531
1526 1527 1529 1537 1543 1539 1538 1536 1534 1535 1536 1536 1537 1541 1543 1545 1545 1545 1545 1545 1544 1544 1543 1542 1540 1539 1538 1537 1537 1536 1535 1535 1534 1534 1533 1533 1532 1531 1531 1531 1530 1530 1530 1530 1531 1531 1532 1532 1532
1526 1528 1536 1544 1542 1537 1535 1535 1534 1535 1537 1539 1539 1543 1545 1546 1545 1545 1545 1545 1545 1544 1543 1543 1542 1541 1540 1539 1538 1537 1537 1536 1536 1535 1534 1534 1533 1533 1532 1532 1532 1532 1532 1532 1532 1532 1533 1533 1533
1527 1530 1544 1550 1543 1538 1537 1536 1535 1537 1540 1541 1541 1544 1546 1547 1546 1546 1546 1546 1546 1545 1544 1544 1543 1542 1541 1540 1539 1539 1538 1537 1537 1536 1536 1535 1535 1534 1534 1533 1533 1533 1533 1533 1533 1534 1534 1534 1534
1529 1535 1544 1545 1544 1541 1538 1537 1537 1538 1540 1542 1542 1544 1547 1547 1547 1547 1547 1547 1547 1546 1545 1545 1544 1543 1542 1542 1541 1540 1540 1539 1538 1538 1537 1536 1536 1536 1535 1535 1534 1534 1534 1534 1535 1535 1535 1536 1536
1528 1534 1542 1544 1544 1542 1538 1538 1539 1539 1541 1542 1543 1544 1546 1547 1547 1547 1547 1548 1547 1547 1546 1546 1545 1544 1544 1543 1542 1541 1541 1540 1540 1539 1538 1538 1537 1537 1536 1536 1535 1535 1536 1536 1536 1537 1537 1537 1537
1528 1539 1546 1543 1543 1541 1538 1538 1540 1541 1542 1543 1544 1544 1545 1546 1547 1548 1548 1548 1548 1548 1547 1547 1546 1545 1545 1544 1543 1543 1542 1542 1541 1540 1540 1539 1539 1538 1538 1537 1537 1537 1537 1537 1538 1538 1538 1539 1539
1530 1542 1541 1537 1537 1538 1538 1539 1540 1543 1543 1544 1545 1545 1546 1547 1548 1548 1548 1548 1548 1548 1548 1547 1547 1546 1546 1545 1545 1544 1543 1543 1542 1542 1541 1541 1540 1540 1539 1539 1539 1538 1538 1539 1539 1540 1540 1540 1540
1531 1537 1536 1536 1536 1537 1539 1540 1541 1542 1545 1544 1545 1546 1547 1547 1548 1548 1548 1549 1549 1549 1549 1548 1548 1547 1547 1546 1545 1545 1544 1544 1543 1543 1542 1542 1541 1541 1540 1540 1540 1540 1540 1540 1541 1541 1541 1541 1541
1533 1534 1535 1536 1537 1538 1539 1540 1542 1542 1543 1544 1544 1545 1546 1547 1548 1548 1549 1549 1549 1549 1549 1549 1548 1548 1548 1547 1546 1546 1545 1545 1544 1544 1543 1543 1542 1542 1542 1542 1541 1541 1542 1542 1542 1542 1542 1543 1543
1534 1535 1536 1536 1537 1538 1539 1540 1541 1542 1543 1544 1545 1546 1546 1547 1547 1548 1549 1549 1549 1549 1549 1549 1549 1549 1548 1548 1547 1547 1546 1546 1545 1545 1545 1544 1544 1543 1543 1543 1543 1543 1543 1543 1543 1543 1544 1544 1544
1534 1535 1536 1536 1537 1538 1539 1541 1542 1543 1543 1544 1544 1545 1546 1546 1547 1548 1548 1549 1549 1549 1550 1549 1549 1549 1549 1548 1548 1547 1547 1547 1546 1546 1546 1545 1545 1545 1544 1544 1544 1544 1545 1545 1545 1545 1545 1545 1545
1534 1536 1538 1537 1537 1538 1540 1544 1541 1541 1542 1543 1544 1544 1545 1546 1546 1547 1547 1548 1549 1549 1549 1550 1549 1549 1549 1549 1548 1548 1548 1547 1547 1547 1547 1546 1546 1546 1545 1545 1545 1546 1546 1546 1546 1546 1546 1546 1546
1536 1541 1546 1539 1536 1537 1542 1549 1540 1540 1541 1542 1543 1543 1544 1545 1546 1546 1547 1548 1548 1549 1549 1549 1549 1549 1549 1549 1549 1549 1548 1548 1548 1548 1547 1547 1547 1547 1546 1546 1546 1547 1547 1547 1547 1547 1547 1547 1547
1543 1549 1548 1541 1535 1536 1540 1544 1537 1538 1539 1540 1541 1542 1543 1544 1545 1546 1546 1547 1548 1548 1549 1549 1549 1549 1549 1550 1549 1549 1549 1549 1549 1548 1548 1548 1548 1547 1547 1547 1547 1548 1548 1548 1548 1548 1548 1548 1548
1549 1548 1545 1542 1534 1535 1539 1540 1536 1536 1537 1537 1539 1540 1541 1542 1543 1544 1545 1546 1547 1548 1548 1549 1549 1549 1549 1549 1549 1549 1549 1549 1549 1549 1549 1548 1548 1548 1548 1548 1548 1548 1549 1549 1549 1549 1549 1549 1549
1537 1541 1543 1537 1531 1534 1538 1537 1534 1534 1535 1536 1537 1538 1539 1540 1542 1543 1544 1545 1546 1547 1548 1548 1548 1549 1549 1549 1549 1549 1549 1549 1549 1549 1549 1549 1549 1549 1549 1549 1549 1549 1549 1549 1550 1549 1549 1550 1550
1535 1541 1541 1535 1529 1533 1538 1536 1531 1531 1531 1532 1533 1535 1537 1539 1541 1542 1543 1544 1545 1546 1547 1548 1548 1548 1549 1549 1549 1549 1549 1549 1549 1549 1549 1549 1549 1549 1549 1549 1549 1549 1549 1550 1550 1550 1550 1550 1550
1535 1538 1538 1537 1532 1532 1537 1541 1534 1531 1530 1532 1532 1533 1534 1536 1538 1540 1542 1543 1544 1545 1546 1547 1547 1548 1548 1548 1549 1549 1549 1549 1549 1549 1549 1549 1549 1549 1549 1549 1549 1549 1549 1550 1550 1550 1550 1550 1550
1538 1530 1530 1532 1540 1547 1541 1556 1539 1532 1531 1530 1531 1531 1532 1534 1536 1538 1540 1542 1543 1544 1545 1546 1547 1547 1548 1548 1548 1548 1548 1548 1549 1549 1549 1549 1549 1548 1548 1549 1549 1549 1549 1549 1549 1550 1550 1550 1550
1530 1526 1528 1531 1538 1545 1543 1551 1545 1533 1534 1531 1529 1529 1531 1533 1534 1536 1538 1540 1542 1543 1544 1545 1546 1546 1547 1547 1547 1547 1548 1548 1548 1548 1548 1548 1548 1548 1548 1548 1548 1548 1549 1549 1549 1549 1549 1549 1550
1525 1529 1533 1539 1545 1556 1545 1550 1549 1537 1531 1527 1526 1527 1529 1531 1533 1535 1537 1539 1541 1542 1543 1544 1545 1545 1546 1546 1546 1546 1547 1547 1547 1547 1547 1547 1548 1548 1548 1548 1548 1548 1548 1548 1548 1549 1549 1549 1549
1529 1545 1560 1561 1565 1559 1541 1545 1544 1528 1523 1522 1523 1525 1527 1530 1532 1534 1536 1538 1539 1540 1541 1542 1543 1544 1544 1545 1545 1545 1546 1546 1546 1546 1546 1546 1546 1547 1547 1547 1547 1547 1548 1548 1548 1548 1548 1548 1548
1532 1542 1561 1568 1568 1558 1542 1545 1536 1522 1520 1520 1521 1524 1526 1528 1530 1532 1533 1535 1537 1539 1540 1541 1542 1542 1543 1543 1544 1544 1544 1544 1545 1545 1545 1545 1545 1546 1546 1546 1546 1547 1547 1547 1547 1547 1547 1547 1547
1532 1538 1539 1552 1553 1557 1551 1540 1530 1523 1522 1521 1522 1524 1525 1526 1528 1530 1532 1534 1535 1537 1538 1539 1540 1541 1541 1542 1542 1542 1542 1543 1543 1543 1544 1544 1544 1544 1545 1545 1545 1546 1546 1546 1546 1546 1546 1546 1546
1525 1531 1544 1551 1560 1564 1554 1547 1542 1529 1526 1523 1523 1523 1524 1525 1526 1528 1530 1532 1534 1535 1536 1537 1538 1539 1540 1540 1540 1540 1540 1541 1541 1541 1541 1542 1542 1543 1543 1543 1544 1544 1544 1545 1545 1545 1545 1545 1545
1529 1532 1538 1548 1552 1562 1563 1551 1525 1524 1522 1522 1522 1521 1522 1523 1524 1526 1528 1530 1532 1533 1534 1535 1536 1537 1538 1538 1538 1539 1539 1539 1539 1539 1539 1540 1540 1541 1541 1542 1542 1542 1542 1543 1543 1543 1543 1543 1543
1523 1528 1536 1549 1550 1551 1556 1548 1518 1519 1519 1519 1520 1521 1521 1522 1523 1525 1526 1528 1530 1531 1532 1533 1534 1535 1535 1536 1536 1537 1537 1537 1537 1537 1537 1538 1538 1538 1539 1540 1540 1540 1540 1541 1541 1541 1542 1542 1542